Weather History for KGUP - April, 2014

Change the Weather History Date:

Friday, April 4, 2014

  Actual Average Record
Temperature  
Mean Temperature 38 °F -  
Max Temperature 59 °F 56 °F 72 °F (2002)
Min Temperature 17 °F 24 °F 13 °F (1974)
Degree Days  
Heating Degree Days 27    
Moisture  
Dew Point 10 °F    
Average Humidity 38    
Maximum Humidity 84    
Minimum Humidity 10    
Precipitation  
Precipitation 0.00 in - - ()
Sea Level Pressure  
Sea Level Pressure 29.99 in    
Wind  
Wind Speed 5 mph (SW)    
Max Wind Speed 21 mph    
Max Gust Speed 26 mph    
Visibility 10 miles    
Events      
Averages and records for this station are not official NWS values.
T = Trace of Precipitation, MM = Missing Value Source: NWS Daily Summary

Daily Weather History Graph

Daily Weather History Graph

Search for Another Location

Airport or City:

Trip Planner

Search our weather history database for the weather conditions in past years. The results will help you decide how hot, cold, wet, or windy it might be!

Date:

Astronomy

Apr. 04, 2014 Rise Set
Actual Time 6:57 AM MDT 7:39 PM MDT
Civil Twilight 6:31 AM MDT 8:05 PM MDT
Nautical Twilight 6:01 AM MDT 8:35 PM MDT
Astronomical Twilight 5:30 AM MDT 9:06 PM MDT
Moon 10:24 AM MDT (4/4) No Moon Set
Length of Visible Light 13h 33m
Length of Day
12h 41m
Waxing Crescent, 26% of the Moon is Illuminated
Apr 4
Waxing Crescent
Apr 7
First Quarter
Apr 15
Full
Apr 22
Last Quarter
Apr 29
New

Hourly Weather History & Observations

Time (MDT) Temp. Windchill Dew Point Humidity Pressure Visibility Wind Dir Wind Speed Gust Speed Precip Events Conditions
12:53 AM 26.1 °F 21.9 °F 17.1 °F 69% 30.17 in 10.0 mi East 3.5 mph - N/A   Clear
1:53 AM 26.1 °F 20.5 °F 16.0 °F 66% 30.12 in 10.0 mi NE 4.6 mph - N/A   Clear
2:53 AM 21.9 °F 14.5 °F 14.0 °F 72% 30.13 in 10.0 mi ENE 5.8 mph - N/A   Clear
3:53 AM 24.1 °F - 14.0 °F 65% 30.11 in 10.0 mi Calm Calm - N/A   Clear
4:53 AM 21.9 °F - 14.0 °F 72% 30.11 in 10.0 mi Calm Calm - N/A   Clear
5:53 AM 19.9 °F - 14.0 °F 78% 30.13 in 10.0 mi Calm Calm - N/A   Clear
6:53 AM 17.1 °F - 12.9 °F 84% 30.16 in 10.0 mi Calm Calm - N/A   Clear
7:53 AM 21.9 °F - 16.0 °F 78% 30.16 in 10.0 mi Calm Calm - N/A   Clear
8:53 AM 33.1 °F 26.9 °F 18.0 °F 54% 30.17 in 10.0 mi East 6.9 mph - N/A   Clear
9:53 AM 39.9 °F 37.8 °F 18.0 °F 41% 30.11 in 10.0 mi North 3.5 mph - N/A   Clear
10:53 AM 46.9 °F - 19.0 °F 33% 30.05 in 10.0 mi West 5.8 mph - N/A   Clear
11:53 AM 51.1 °F - 10.9 °F 20% 30.01 in 10.0 mi South 9.2 mph - N/A   Clear
12:53 PM 54.0 °F - 9.0 °F 17% 29.96 in 10.0 mi Variable 5.8 mph 18.4 mph N/A   Clear
1:53 PM 55.0 °F - 3.9 °F 13% 29.91 in 10.0 mi SW 15.0 mph 21.9 mph N/A   Clear
2:53 PM 59.0 °F - 3.0 °F 11% 29.88 in 10.0 mi WSW 20.7 mph 26.5 mph N/A   Clear
3:53 PM 55.9 °F - -0.0 °F 10% 29.87 in 10.0 mi West 16.1 mph - N/A   Clear
4:53 PM 55.9 °F - -0.0 °F 10% 29.87 in 10.0 mi SW 9.2 mph - N/A   Clear
5:53 PM 55.9 °F - 5.0 °F 13% 29.87 in 10.0 mi West 16.1 mph 20.7 mph N/A   Clear
6:53 PM 54.0 °F - 1.0 °F 12% 29.90 in 10.0 mi SW 10.4 mph - N/A   Clear
7:53 PM 53.1 °F - 5.0 °F 14% 29.87 in 10.0 mi Variable 4.6 mph - N/A   Mostly Cloudy
8:53 PM 51.1 °F - 7.0 °F 17% 29.83 in 10.0 mi Calm Calm - N/A   Overcast
9:53 PM 52.0 °F - 7.0 °F 16% 29.78 in 10.0 mi SE 10.4 mph 19.6 mph N/A   Overcast
10:53 PM 46.9 °F - 9.0 °F 21% 29.76 in 10.0 mi SW 5.8 mph - N/A   Overcast
11:53 PM 45.0 °F - 7.0 °F 21% 29.74 in 10.0 mi Calm Calm - N/A   Overcast